,,,PA_Meas_PMT16A,,PR_Meas_QMR101_102,,RH_Meas_QMH101,,SR_Meas_QMS101,,TA_Meas_QMH101,,GenWind,,GenWind,
date,time,status,PA,status,PR,status,RH,status,SR,status,TA,status,DirAvg,status,SpdAvg,
2011-08-24, 00:00:05,VALID,1010.267,VALID,0.0,VALID,104.0,VALID,0.0,VALID,24.415,VALID,127.0,VALID,0.584,
2011-08-24, 00:01:05,VALID,1010.289,VALID,0.0,VALID,104.0,VALID,0.0,VALID,24.435,VALID,127.0,VALID,0.587,
2011-08-24, 00:02:05,VALID,1010.28,VALID,0.0,VALID,104.0,VALID,0.0,VALID,24.454,VALID,126.0,VALID,0.417,
2011-08-24, 00:03:05,VALID,1010.281,VALID,0.0,VALID,104.0,VALID,0.0,VALID,24.454,VALID,127.0,VALID,0.531,
2011-08-24, 00:04:05,VALID,1010.274,VALID,0.0,VALID,104.0,VALID,0.0,VALID,24.435,VALID,127.0,VALID,0.429,
2011-08-24, 00:05:05,VALID,1010.284,VALID,0.0,VALID,103.992,VALID,0.0,VALID,24.454,VALID,125.0,VALID,0.75,
2011-08-24, 00:06:05,VALID,1010.259,VALID,0.0,VALID,104.0,VALID,0.0,VALID,24.474,VALID,130.0,VALID,0.759,
2011-08-24, 00:07:05,VALID,1010.213,VALID,0.0,VALID,103.779,VALID,0.0,VALID,24.454,VALID,127.0,VALID,0.478,
2011-08-24, 00:08:05,VALID,1010.236,VALID,0.0,VALID,103.253,VALID,0.0,VALID,24.374,VALID,104.0,VALID,0.514,
2011-08-24, 00:09:05,VALID,1010.199,VALID,0.0,VALID,102.749,VALID,0.0,VALID,24.298,VALID,96.0,VALID,0.613,
2011-08-24, 00:10:05,VALID,1010.219,VALID,0.0,VALID,102.36,VALID,0.106,VALID,24.259,VALID,69.0,VALID,0.705,
2011-08-24, 00:11:05,VALID,1010.234,VALID,0.0,VALID,102.254,VALID,0.0,VALID,24.181,VALID,63.0,VALID,0.516,
2011-08-24, 00:12:05,VALID,1010.229,VALID,0.0,VALID,102.017,VALID,0.0,VALID,24.123,VALID,63.0,VALID,0.398,
2011-08-24, 00:13:05,VALID,1010.221,VALID,0.0,VALID,101.705,VALID,0.0,VALID,24.025,VALID,63.0,VALID,0.287,
2011-08-24, 00:14:05,VALID,1010.215,VALID,0.0,VALID,101.964,VALID,0.0,VALID,23.967,VALID,63.0,VALID,0.47,
2011-08-24, 00:15:05,VALID,1010.196,VALID,0.0,VALID,102.284,VALID,0.0,VALID,23.947,VALID,63.0,VALID,0.336,
2011-08-24, 00:16:05,VALID,1010.161,VALID,0.0,VALID,102.551,VALID,0.0,VALID,23.889,VALID,63.0,VALID,0.282,
2011-08-24, 00:17:05,VALID,1010.116,VALID,0.0,VALID,102.696,VALID,0.0,VALID,23.85,VALID,63.0,VALID,0.187,
2011-08-24, 00:18:05,VALID,1010.098,VALID,0.0,VALID,102.772,VALID,0.0,VALID,23.791,VALID,63.0,VALID,0.0,
2011-08-24, 00:19:05,VALID,1010.095,VALID,0.0,VALID,102.902,VALID,0.106,VALID,23.772,VALID,63.0,VALID,0.0,
2011-08-24, 00:20:05,VALID,1010.092,VALID,0.0,VALID,103.032,VALID,0.0,VALID,23.733,VALID,63.0,VALID,0.0,
2011-08-24, 00:21:05,VALID,1010.085,VALID,0.0,VALID,103.161,VALID,0.0,VALID,23.713,VALID,63.0,VALID,0.0,
2011-08-24, 00:22:05,VALID,1010.093,VALID,0.0,VALID,103.237,VALID,0.0,VALID,23.675,VALID,63.0,VALID,0.0,
2011-08-24, 00:23:05,VALID,1010.108,VALID,0.0,VALID,103.398,VALID,0.0,VALID,23.614,VALID,63.0,VALID,0.223,
2011-08-24, 00:24:05,VALID,1010.111,VALID,0.0,VALID,103.596,VALID,0.0,VALID,23.616,VALID,63.0,VALID,0.0,
2011-08-24, 00:25:05,VALID,1010.107,VALID,0.0,VALID,103.771,VALID,0.0,VALID,23.616,VALID,63.0,VALID,0.167,
2011-08-24, 00:26:05,VALID,1010.073,VALID,0.0,VALID,103.764,VALID,0.0,VALID,23.577,VALID,63.0,VALID,0.164,
2011-08-24, 00:27:05,VALID,1010.047,VALID,0.0,VALID,103.764,VALID,0.0,VALID,23.519,VALID,63.0,VALID,0.296,
2011-08-24, 00:28:05,VALID,1010.007,VALID,0.0,VALID,103.794,VALID,0.0,VALID,23.48,VALID,64.0,VALID,0.2,
2011-08-24, 00:29:05,VALID,1010.031,VALID,0.0,VALID,103.916,VALID,0.0,VALID,23.48,VALID,63.0,VALID,0.226,
2011-08-24, 00:30:05,VALID,1010.03,VALID,0.0,VALID,103.939,VALID,0.0,VALID,23.441,VALID,63.0,VALID,0.327,
2011-08-24, 00:31:05,VALID,1010.037,VALID,0.0,VALID,103.886,VALID,0.0,VALID,23.382,VALID,63.0,VALID,0.438,
2011-08-24, 00:32:05,VALID,1010.038,VALID,0.0,VALID,103.893,VALID,0.0,VALID,23.343,VALID,64.0,VALID,0.256,
2011-08-24, 00:33:05,VALID,1010.04,VALID,0.0,VALID,104.0,VALID,0.0,VALID,23.324,VALID,63.0,VALID,0.129,
2011-08-24, 00:34:05,VALID,1010.036,VALID,0.0,VALID,104.0,VALID,0.0,VALID,23.304,VALID,63.0,VALID,0.126,
2011-08-24, 00:35:05,VALID,1010.021,VALID,0.0,VALID,104.0,VALID,0.0,VALID,23.264,VALID,63.0,VALID,0.12,
2011-08-24, 00:36:05,VALID,1010.014,VALID,0.0,VALID,104.0,VALID,0.0,VALID,23.226,VALID,63.0,VALID,0.0,
2011-08-24, 00:37:05,VALID,1009.985,VALID,0.0,VALID,104.0,VALID,0.0,VALID,23.226,VALID,63.0,VALID,0.0,
2011-08-24, 00:38:05,VALID,1009.968,VALID,0.0,VALID,104.0,VALID,0.0,VALID,23.187,VALID,63.0,VALID,0.0,
2011-08-24, 00:39:05,VALID,1009.969,VALID,0.0,VALID,104.0,VALID,0.0,VALID,23.187,VALID,63.0,VALID,0.0,
2011-08-24, 00:40:05,VALID,1009.981,VALID,0.0,VALID,104.0,VALID,0.0,VALID,23.166,VALID,63.0,VALID,0.113,
2011-08-24, 00:41:05,VALID,1009.963,VALID,0.0,VALID,104.0,VALID,0.0,VALID,23.168,VALID,63.0,VALID,0.0,
2011-08-24, 00:42:05,VALID,1009.976,VALID,0.0,VALID,104.0,VALID,0.0,VALID,23.127,VALID,63.0,VALID,0.0,
2011-08-24, 00:43:05,VALID,1009.953,VALID,0.0,VALID,104.0,VALID,0.106,VALID,23.109,VALID,63.0,VALID,0.0,
2011-08-24, 00:44:05,VALID,1009.949,VALID,0.0,VALID,104.0,VALID,0.0,VALID,23.069,VALID,63.0,VALID,0.0,
2011-08-24, 00:45:05,VALID,1009.916,VALID,0.0,VALID,104.0,VALID,0.0,VALID,23.071,VALID,63.0,VALID,0.0,
2011-08-24, 00:46:05,VALID,1009.925,VALID,0.0,VALID,104.0,VALID,0.0,VALID,23.032,VALID,63.0,VALID,0.0,
2011-08-24, 00:47:05,VALID,1009.94,VALID,0.0,VALID,104.0,VALID,0.0,VALID,23.012,VALID,63.0,VALID,0.242,
2011-08-24, 00:48:05,VALID,1009.892,VALID,0.0,VALID,104.0,VALID,0.0,VALID,22.973,VALID,63.0,VALID,0.248,
2011-08-24, 00:49:05,VALID,1009.874,VALID,0.0,VALID,104.0,VALID,0.0,VALID,22.973,VALID,63.0,VALID,0.121,
2011-08-24, 00:50:05,VALID,1009.895,VALID,0.0,VALID,104.0,VALID,0.0,VALID,22.932,VALID,63.0,VALID,0.0,
2011-08-24, 00:51:05,VALID,1009.885,VALID,0.0,VALID,104.0,VALID,0.0,VALID,22.893,VALID,63.0,VALID,0.0,
2011-08-24, 00:52:05,VALID,1009.879,VALID,0.0,VALID,104.0,VALID,0.0,VALID,22.915,VALID,63.0,VALID,0.0,
2011-08-24, 00:53:05,VALID,1009.865,VALID,0.0,VALID,104.0,VALID,0.0,VALID,22.876,VALID,63.0,VALID,0.0,
2011-08-24, 00:54:05,VALID,1009.856,VALID,0.0,VALID,104.0,VALID,0.0,VALID,22.856,VALID,63.0,VALID,0.0,
2011-08-24, 00:55:05,VALID,1009.87,VALID,0.0,VALID,104.0,VALID,0.0,VALID,22.837,VALID,63.0,VALID,0.124,
2011-08-24, 00:56:05,VALID,1009.852,VALID,0.0,VALID,104.0,VALID,0.0,VALID,22.855,VALID,63.0,VALID,0.314,
2011-08-24, 00:57:05,VALID,1009.869,VALID,0.0,VALID,104.0,VALID,0.0,VALID,22.876,VALID,63.0,VALID,0.179,
2011-08-24, 00:58:05,VALID,1009.867,VALID,0.0,VALID,104.0,VALID,0.0,VALID,22.856,VALID,63.0,VALID,0.002,
2011-08-24, 00:59:05,VALID,1009.879,VALID,0.0,VALID,104.0,VALID,0.0,VALID,22.838,VALID,63.0,VALID,0.0,
2011-08-24, 01:00:05,VALID,1009.9,VALID,0.0,VALID,104.0,VALID,0.0,VALID,22.819,VALID,63.0,VALID,0.0,
2011-08-24, 01:01:05,VALID,1009.902,VALID,0.0,VALID,104.0,VALID,0.0,VALID,22.819,VALID,63.0,VALID,0.0,
2011-08-24, 01:02:05,VALID,1009.896,VALID,0.0,VALID,104.0,VALID,0.0,VALID,22.798,VALID,63.0,VALID,0.0,
2011-08-24, 01:03:05,VALID,1009.917,VALID,0.0,VALID,104.0,VALID,0.0,VALID,22.8,VALID,63.0,VALID,0.0,
2011-08-24, 01:04:05,VALID,1009.881,VALID,0.0,VALID,104.0,VALID,0.106,VALID,22.777,VALID,63.0,VALID,0.0,
2011-08-24, 01:05:05,VALID,1009.876,VALID,0.0,VALID,104.0,VALID,0.0,VALID,22.837,VALID,63.0,VALID,0.0,
2011-08-24, 01:06:05,VALID,1009.831,VALID,0.0,VALID,104.0,VALID,0.0,VALID,22.856,VALID,63.0,VALID,0.0,
2011-08-24, 01:07:05,VALID,1009.829,VALID,0.0,VALID,104.0,VALID,0.0,VALID,22.876,VALID,63.0,VALID,0.195,
2011-08-24, 01:08:05,VALID,1009.847,VALID,0.0,VALID,104.0,VALID,0.0,VALID,22.856,VALID,63.0,VALID,0.133,
2011-08-24, 01:09:05,VALID,1009.802,VALID,0.0,VALID,104.0,VALID,0.0,VALID,22.817,VALID,63.0,VALID,0.162,
2011-08-24, 01:10:05,VALID,1009.798,VALID,0.0,VALID,104.0,VALID,0.0,VALID,22.798,VALID,63.0,VALID,0.182,
2011-08-24, 01:11:05,VALID,1009.794,VALID,0.0,VALID,104.0,VALID,0.0,VALID,22.798,VALID,63.0,VALID,0.153,
2011-08-24, 01:12:05,VALID,1009.832,VALID,0.0,VALID,104.0,VALID,0.0,VALID,22.817,VALID,63.0,VALID,0.131,
2011-08-24, 01:13:05,VALID,1009.81,VALID,0.0,VALID,104.0,VALID,0.0,VALID,22.798,VALID,63.0,VALID,0.0,
2011-08-24, 01:14:05,VALID,1009.807,VALID,0.0,VALID,104.0,VALID,0.0,VALID,22.778,VALID,63.0,VALID,0.0,
2011-08-24, 01:15:05,VALID,1009.808,VALID,0.0,VALID,104.0,VALID,0.0,VALID,22.718,VALID,63.0,VALID,0.0,
2011-08-24, 01:16:05,VALID,1009.775,VALID,0.0,VALID,104.0,VALID,0.0,VALID,22.679,VALID,63.0,VALID,0.101,
2011-08-24, 01:17:05,VALID,1009.77,VALID,0.0,VALID,104.0,VALID,0.0,VALID,22.681,VALID,63.0,VALID,0.109,
2011-08-24, 01:18:05,VALID,1009.765,VALID,0.0,VALID,104.0,VALID,0.0,VALID,22.7,VALID,63.0,VALID,0.153,
2011-08-24, 01:19:05,VALID,1009.784,VALID,0.0,VALID,104.0,VALID,0.106,VALID,22.72,VALID,63.0,VALID,0.168,
2011-08-24, 01:20:05,VALID,1009.791,VALID,0.0,VALID,104.0,VALID,0.0,VALID,22.7,VALID,63.0,VALID,0.298,
2011-08-24, 01:21:05,VALID,1009.814,VALID,0.0,VALID,104.0,VALID,0.106,VALID,22.7,VALID,63.0,VALID,0.146,
2011-08-24, 01:22:05,VALID,1009.847,VALID,0.0,VALID,104.0,VALID,0.106,VALID,22.661,VALID,63.0,VALID,0.277,
2011-08-24, 01:23:05,VALID,1009.828,VALID,0.0,VALID,104.0,VALID,0.106,VALID,22.603,VALID,63.0,VALID,0.307,
2011-08-24, 01:24:05,VALID,1009.843,VALID,0.0,VALID,104.0,VALID,0.106,VALID,22.545,VALID,63.0,VALID,0.212,
2011-08-24, 01:25:05,VALID,1009.82,VALID,0.0,VALID,104.0,VALID,0.106,VALID,22.523,VALID,63.0,VALID,0.214,
2011-08-24, 01:26:05,VALID,1009.802,VALID,0.0,VALID,104.0,VALID,0.0,VALID,22.506,VALID,63.0,VALID,0.219,
2011-08-24, 01:27:05,VALID,1009.786,VALID,0.0,VALID,104.0,VALID,0.106,VALID,22.467,VALID,63.0,VALID,0.366,
2011-08-24, 01:28:05,VALID,1009.774,VALID,0.0,VALID,104.0,VALID,0.0,VALID,22.428,VALID,63.0,VALID,0.268,
2011-08-24, 01:29:05,VALID,1009.743,VALID,0.0,VALID,104.0,VALID,0.0,VALID,22.368,VALID,63.0,VALID,0.26,
2011-08-24, 01:30:05,VALID,1009.742,VALID,0.0,VALID,104.0,VALID,0.106,VALID,22.369,VALID,63.0,VALID,0.105,
2011-08-24, 01:31:05,VALID,1009.743,VALID,0.0,VALID,104.0,VALID,0.0,VALID,22.35,VALID,63.0,VALID,0.177,
2011-08-24, 01:32:05,VALID,1009.759,VALID,0.0,VALID,104.0,VALID,0.106,VALID,22.309,VALID,63.0,VALID,0.165,
2011-08-24, 01:33:05,VALID,1009.749,VALID,0.0,VALID,104.0,VALID,0.106,VALID,22.27,VALID,63.0,VALID,0.039,
2011-08-24, 01:34:05,VALID,1009.693,VALID,0.0,VALID,104.0,VALID,0.106,VALID,22.251,VALID,63.0,VALID,0.29,
2011-08-24, 01:35:05,VALID,1009.702,VALID,0.0,VALID,104.0,VALID,0.106,VALID,22.27,VALID,63.0,VALID,0.297,
2011-08-24, 01:36:05,VALID,1009.696,VALID,0.0,VALID,104.0,VALID,0.106,VALID,22.272,VALID,63.0,VALID,0.249,
2011-08-24, 01:37:05,VALID,1009.699,VALID,0.0,VALID,104.0,VALID,0.106,VALID,22.272,VALID,63.0,VALID,0.285,
2011-08-24, 01:38:05,VALID,1009.706,VALID,0.0,VALID,104.0,VALID,0.0,VALID,22.251,VALID,63.0,VALID,0.298,
2011-08-24, 01:39:05,VALID,1009.706,VALID,0.0,VALID,104.0,VALID,0.0,VALID,22.231,VALID,63.0,VALID,0.214,
2011-08-24, 01:40:05,VALID,1009.726,VALID,0.0,VALID,104.0,VALID,0.0,VALID,22.213,VALID,63.0,VALID,0.224,
2011-08-24, 01:41:05,VALID,1009.739,VALID,0.0,VALID,104.0,VALID,0.0,VALID,22.194,VALID,63.0,VALID,0.41,
2011-08-24, 01:42:05,VALID,1009.707,VALID,0.0,VALID,104.0,VALID,0.0,VALID,22.174,VALID,63.0,VALID,0.305,
2011-08-24, 01:43:05,VALID,1009.693,VALID,0.0,VALID,104.0,VALID,0.106,VALID,22.153,VALID,63.0,VALID,0.151,
2011-08-24, 01:44:05,VALID,1009.648,VALID,0.0,VALID,104.0,VALID,0.106,VALID,22.134,VALID,63.0,VALID,0.235,
2011-08-24, 01:45:05,VALID,1009.655,VALID,0.0,VALID,104.0,VALID,0.106,VALID,22.136,VALID,63.0,VALID,0.288,
2011-08-24, 01:46:05,VALID,1009.638,VALID,0.0,VALID,104.0,VALID,0.106,VALID,22.136,VALID,63.0,VALID,0.279,
2011-08-24, 01:47:05,VALID,1009.612,VALID,0.0,VALID,104.0,VALID,0.106,VALID,22.095,VALID,63.0,VALID,0.254,
2011-08-24, 01:48:05,VALID,1009.604,VALID,0.0,VALID,104.0,VALID,0.106,VALID,22.114,VALID,63.0,VALID,0.236,
2011-08-24, 01:49:05,VALID,1009.581,VALID,0.0,VALID,104.0,VALID,0.106,VALID,22.116,VALID,63.0,VALID,0.226,
2011-08-24, 01:50:05,VALID,1009.605,VALID,0.0,VALID,104.0,VALID,0.106,VALID,22.095,VALID,63.0,VALID,0.239,
2011-08-24, 01:51:05,VALID,1009.565,VALID,0.0,VALID,104.0,VALID,0.0,VALID,22.075,VALID,64.0,VALID,0.169,
2011-08-24, 01:52:05,VALID,1009.577,VALID,0.0,VALID,104.0,VALID,0.106,VALID,22.077,VALID,63.0,VALID,0.075,
2011-08-24, 01:53:05,VALID,1009.554,VALID,0.0,VALID,104.0,VALID,0.106,VALID,22.058,VALID,63.0,VALID,0.295,
2011-08-24, 01:54:05,VALID,1009.544,VALID,0.0,VALID,104.0,VALID,0.106,VALID,22.036,VALID,63.0,VALID,0.302,
2011-08-24, 01:55:05,VALID,1009.547,VALID,0.0,VALID,104.0,VALID,0.0,VALID,22.038,VALID,63.0,VALID,0.441,
2011-08-24, 01:56:05,VALID,1009.563,VALID,0.0,VALID,104.0,VALID,0.106,VALID,22.019,VALID,64.0,VALID,0.327,
2011-08-24, 01:57:05,VALID,1009.568,VALID,0.0,VALID,104.0,VALID,0.106,VALID,21.978,VALID,63.0,VALID,0.27,
2011-08-24, 01:58:05,VALID,1009.579,VALID,0.0,VALID,104.0,VALID,0.106,VALID,21.959,VALID,63.0,VALID,0.364,
2011-08-24, 01:59:05,VALID,1009.571,VALID,0.0,VALID,104.0,VALID,0.106,VALID,21.939,VALID,64.0,VALID,0.317,
2011-08-24, 02:00:05,VALID,1009.583,VALID,0.0,VALID,104.0,VALID,0.106,VALID,21.921,VALID,64.0,VALID,0.459,
2011-08-24, 02:01:05,VALID,1009.572,VALID,0.0,VALID,104.0,VALID,0.106,VALID,21.902,VALID,63.0,VALID,0.344,
2011-08-24, 02:02:05,VALID,1009.596,VALID,0.0,VALID,104.0,VALID,0.106,VALID,21.882,VALID,63.0,VALID,0.389,
2011-08-24, 02:03:05,VALID,1009.646,VALID,0.0,VALID,104.0,VALID,0.106,VALID,21.863,VALID,61.0,VALID,0.49,
2011-08-24, 02:04:05,VALID,1009.642,VALID,0.0,VALID,104.0,VALID,0.0,VALID,21.822,VALID,60.0,VALID,0.139,
2011-08-24, 02:05:05,VALID,1009.643,VALID,0.0,VALID,104.0,VALID,0.106,VALID,21.803,VALID,60.0,VALID,0.191,
2011-08-24, 02:06:05,VALID,1009.68,VALID,0.0,VALID,104.0,VALID,0.106,VALID,21.783,VALID,60.0,VALID,0.408,
2011-08-24, 02:07:05,VALID,1009.68,VALID,0.0,VALID,104.0,VALID,0.106,VALID,21.785,VALID,60.0,VALID,0.485,
2011-08-24, 02:08:05,VALID,1009.686,VALID,0.0,VALID,104.0,VALID,0.106,VALID,21.725,VALID,59.0,VALID,0.159,
2011-08-24, 02:09:05,VALID,1009.704,VALID,0.0,VALID,104.0,VALID,0.106,VALID,21.727,VALID,60.0,VALID,0.454,
2011-08-24, 02:10:05,VALID,1009.675,VALID,0.0,VALID,104.0,VALID,0.106,VALID,21.707,VALID,60.0,VALID,0.221,
2011-08-24, 02:11:05,VALID,1009.691,VALID,0.0,VALID,104.0,VALID,0.106,VALID,21.668,VALID,60.0,VALID,0.295,
2011-08-24, 02:12:05,VALID,1009.687,VALID,0.0,VALID,104.0,VALID,0.0,VALID,21.649,VALID,59.0,VALID,0.302,
2011-08-24, 02:13:05,VALID,1009.675,VALID,0.0,VALID,104.0,VALID,0.106,VALID,21.61,VALID,59.0,VALID,0.266,
2011-08-24, 02:14:05,VALID,1009.684,VALID,0.0,VALID,104.0,VALID,0.0,VALID,21.589,VALID,60.0,VALID,0.288,
2011-08-24, 02:15:05,VALID,1009.651,VALID,0.0,VALID,104.0,VALID,0.0,VALID,21.571,VALID,60.0,VALID,0.341,
2011-08-24, 02:16:05,VALID,1009.662,VALID,0.0,VALID,104.0,VALID,0.0,VALID,21.571,VALID,59.0,VALID,0.352,
2011-08-24, 02:17:05,VALID,1009.677,VALID,0.0,VALID,104.0,VALID,0.106,VALID,21.551,VALID,60.0,VALID,0.395,
2011-08-24, 02:18:05,VALID,1009.689,VALID,0.0,VALID,104.0,VALID,0.0,VALID,21.532,VALID,59.0,VALID,0.513,
2011-08-24, 02:19:05,VALID,1009.713,VALID,0.0,VALID,104.0,VALID,0.106,VALID,21.512,VALID,59.0,VALID,0.367,
2011-08-24, 02:20:05,VALID,1009.742,VALID,0.0,VALID,104.0,VALID,0.0,VALID,21.493,VALID,60.0,VALID,0.379,
2011-08-24, 02:21:05,VALID,1009.723,VALID,0.0,VALID,104.0,VALID,0.106,VALID,21.452,VALID,60.0,VALID,0.343,
2011-08-24, 02:22:05,VALID,1009.77,VALID,0.0,VALID,104.0,VALID,0.106,VALID,21.473,VALID,60.0,VALID,0.0,
2011-08-24, 02:23:05,VALID,1009.76,VALID,0.0,VALID,104.0,VALID,0.106,VALID,21.434,VALID,50.0,VALID,0.273,
2011-08-24, 02:24:05,VALID,1009.776,VALID,0.0,VALID,104.0,VALID,0.106,VALID,21.433,VALID,26.0,VALID,0.43,
2011-08-24, 02:25:05,VALID,1009.755,VALID,0.0,VALID,104.0,VALID,0.106,VALID,21.413,VALID,26.0,VALID,0.194,
2011-08-24, 02:26:05,VALID,1009.774,VALID,0.0,VALID,104.0,VALID,0.0,VALID,21.434,VALID,27.0,VALID,0.271,
2011-08-24, 02:27:05,VALID,1009.789,VALID,0.0,VALID,104.0,VALID,0.106,VALID,21.415,VALID,26.0,VALID,0.145,
2011-08-24, 02:28:05,VALID,1009.752,VALID,0.0,VALID,104.0,VALID,0.106,VALID,21.394,VALID,26.0,VALID,0.0,
2011-08-24, 02:29:05,VALID,1009.752,VALID,0.0,VALID,104.0,VALID,0.0,VALID,21.374,VALID,26.0,VALID,0.012,
2011-08-24, 02:30:05,VALID,1009.758,VALID,0.0,VALID,104.0,VALID,0.106,VALID,21.374,VALID,26.0,VALID,0.0,
2011-08-24, 02:31:05,VALID,1009.718,VALID,0.0,VALID,104.0,VALID,0.106,VALID,21.355,VALID,26.0,VALID,0.0,
2011-08-24, 02:32:05,VALID,1009.711,VALID,0.0,VALID,104.0,VALID,0.0,VALID,21.335,VALID,26.0,VALID,0.055,
2011-08-24, 02:33:05,VALID,1009.669,VALID,0.0,VALID,104.0,VALID,0.106,VALID,21.357,VALID,26.0,VALID,0.0,
2011-08-24, 02:34:05,VALID,1009.683,VALID,0.0,VALID,104.0,VALID,0.106,VALID,21.335,VALID,26.0,VALID,0.0,
2011-08-24, 02:35:05,VALID,1009.644,VALID,0.0,VALID,104.0,VALID,0.106,VALID,21.357,VALID,26.0,VALID,0.0,
2011-08-24, 02:36:05,VALID,1009.622,VALID,0.0,VALID,104.0,VALID,0.106,VALID,21.316,VALID,26.0,VALID,0.0,
2011-08-24, 02:37:05,VALID,1009.627,VALID,0.0,VALID,104.0,VALID,0.106,VALID,21.316,VALID,26.0,VALID,0.024,
2011-08-24, 02:38:05,VALID,1009.613,VALID,0.0,VALID,104.0,VALID,0.106,VALID,21.316,VALID,26.0,VALID,0.047,
2011-08-24, 02:39:05,VALID,1009.636,VALID,0.0,VALID,104.0,VALID,0.106,VALID,21.318,VALID,26.0,VALID,0.0,
2011-08-24, 02:40:05,VALID,1009.619,VALID,0.0,VALID,104.0,VALID,0.106,VALID,21.316,VALID,26.0,VALID,0.314,
2011-08-24, 02:41:04,VALID,1009.635,VALID,0.0,VALID,104.0,VALID,0.0,VALID,21.337,VALID,26.0,VALID,0.36,
2011-08-24, 02:42:04,VALID,1009.602,VALID,0.0,VALID,104.0,VALID,0.106,VALID,21.316,VALID,26.0,VALID,0.232,
2011-08-24, 02:43:04,VALID,1009.614,VALID,0.0,VALID,104.0,VALID,0.106,VALID,21.335,VALID,26.0,VALID,0.193,
2011-08-24, 02:44:04,VALID,1009.605,VALID,0.0,VALID,104.0,VALID,0.106,VALID,21.337,VALID,26.0,VALID,0.34,
2011-08-24, 02:45:04,VALID,1009.603,VALID,0.0,VALID,104.0,VALID,0.106,VALID,21.316,VALID,26.0,VALID,0.273,
2011-08-24, 02:46:04,VALID,1009.621,VALID,0.0,VALID,104.0,VALID,0.106,VALID,21.316,VALID,26.0,VALID,0.028,
2011-08-24, 02:47:04,VALID,1009.593,VALID,0.0,VALID,104.0,VALID,0.106,VALID,21.297,VALID,26.0,VALID,0.021,
2011-08-24, 02:48:04,VALID,1009.576,VALID,0.0,VALID,104.0,VALID,0.106,VALID,21.297,VALID,26.0,VALID,0.182,
2011-08-24, 02:49:04,VALID,1009.6,VALID,0.0,VALID,104.0,VALID,0.106,VALID,21.277,VALID,26.0,VALID,0.118,
2011-08-24, 02:50:04,VALID,1009.592,VALID,0.0,VALID,104.0,VALID,0.106,VALID,21.277,VALID,26.0,VALID,0.002,
2011-08-24, 02:51:04,VALID,1009.611,VALID,0.0,VALID,104.0,VALID,0.106,VALID,21.258,VALID,26.0,VALID,0.047,
2011-08-24, 02:52:04,VALID,1009.606,VALID,0.0,VALID,104.0,VALID,0.212,VALID,21.258,VALID,26.0,VALID,0.0,
2011-08-24, 02:53:04,VALID,1009.612,VALID,0.0,VALID,104.0,VALID,0.106,VALID,21.258,VALID,26.0,VALID,0.0,
2011-08-24, 02:54:04,VALID,1009.619,VALID,0.0,VALID,104.0,VALID,0.106,VALID,21.258,VALID,26.0,VALID,0.0,
2011-08-24, 02:55:04,VALID,1009.585,VALID,0.0,VALID,104.0,VALID,0.106,VALID,21.259,VALID,26.0,VALID,0.03,
2011-08-24, 02:56:04,VALID,1009.573,VALID,0.0,VALID,104.0,VALID,0.106,VALID,21.24,VALID,26.0,VALID,0.0,
2011-08-24, 02:57:04,VALID,1009.554,VALID,0.0,VALID,104.0,VALID,0.106,VALID,21.219,VALID,26.0,VALID,0.236,
2011-08-24, 02:58:04,VALID,1009.513,VALID,0.0,VALID,104.0,VALID,0.106,VALID,21.219,VALID,26.0,VALID,0.23,
2011-08-24, 02:59:04,VALID,1009.5,VALID,0.0,VALID,104.0,VALID,0.106,VALID,21.24,VALID,26.0,VALID,0.092,
2011-08-24, 03:00:04,VALID,1009.468,VALID,0.0,VALID,104.0,VALID,0.106,VALID,21.24,VALID,26.0,VALID,0.262,
2011-08-24, 03:01:04,VALID,1009.492,VALID,0.0,VALID,104.0,VALID,0.106,VALID,21.238,VALID,26.0,VALID,0.288,
2011-08-24, 03:02:04,VALID,1009.471,VALID,0.0,VALID,104.0,VALID,0.106,VALID,21.238,VALID,26.0,VALID,0.219,
2011-08-24, 03:03:04,VALID,1009.456,VALID,0.0,VALID,104.0,VALID,0.106,VALID,21.219,VALID,26.0,VALID,0.181,
2011-08-24, 03:04:04,VALID,1009.434,VALID,0.0,VALID,104.0,VALID,0.0,VALID,21.202,VALID,26.0,VALID,0.0,
2011-08-24, 03:05:04,VALID,1009.42,VALID,0.0,VALID,104.0,VALID,0.0,VALID,21.163,VALID,26.0,VALID,0.0,
2011-08-24, 03:06:04,VALID,1009.413,VALID,0.0,VALID,104.0,VALID,0.0,VALID,21.142,VALID,26.0,VALID,0.496,
2011-08-24, 03:07:04,VALID,1009.416,VALID,0.0,VALID,104.0,VALID,0.0,VALID,21.144,VALID,26.0,VALID,0.391,
2011-08-24, 03:08:04,VALID,1009.424,VALID,0.0,VALID,104.0,VALID,0.0,VALID,21.123,VALID,26.0,VALID,0.115,
2011-08-24, 03:09:04,VALID,1009.426,VALID,0.0,VALID,104.0,VALID,0.0,VALID,21.125,VALID,26.0,VALID,0.215,
2011-08-24, 03:10:04,VALID,1009.433,VALID,0.0,VALID,104.0,VALID,0.0,VALID,21.163,VALID,26.0,VALID,0.243,
2011-08-24, 03:11:04,VALID,1009.409,VALID,0.0,VALID,104.0,VALID,0.0,VALID,21.163,VALID,26.0,VALID,0.319,
2011-08-24, 03:12:04,VALID,1009.393,VALID,0.0,VALID,104.0,VALID,0.0,VALID,21.163,VALID,26.0,VALID,0.123,
2011-08-24, 03:13:04,VALID,1009.406,VALID,0.0,VALID,104.0,VALID,0.0,VALID,21.181,VALID,26.0,VALID,0.0,
2011-08-24, 03:14:04,VALID,1009.364,VALID,0.0,VALID,104.0,VALID,0.0,VALID,21.202,VALID,26.0,VALID,0.054,
2011-08-24, 03:15:04,VALID,1009.352,VALID,0.0,VALID,104.0,VALID,0.0,VALID,21.202,VALID,26.0,VALID,0.0,
2011-08-24, 03:16:04,VALID,1009.33,VALID,0.0,VALID,104.0,VALID,0.0,VALID,21.241,VALID,26.0,VALID,0.0,
2011-08-24, 03:17:04,VALID,1009.313,VALID,0.0,VALID,104.0,VALID,0.0,VALID,21.22,VALID,26.0,VALID,0.097,
2011-08-24, 03:18:04,VALID,1009.324,VALID,0.0,VALID,104.0,VALID,0.0,VALID,21.261,VALID,26.0,VALID,0.041,
2011-08-24, 03:19:04,VALID,1009.289,VALID,0.0,VALID,104.0,VALID,0.0,VALID,21.28,VALID,26.0,VALID,0.198,
2011-08-24, 03:20:04,VALID,1009.264,VALID,0.0,VALID,104.0,VALID,0.0,VALID,21.3,VALID,26.0,VALID,0.171,
2011-08-24, 03:21:04,VALID,1009.247,VALID,0.0,VALID,104.0,VALID,0.0,VALID,21.3,VALID,26.0,VALID,0.204,
2011-08-24, 03:22:04,VALID,1009.261,VALID,0.0,VALID,104.0,VALID,0.0,VALID,21.279,VALID,26.0,VALID,0.0,
2011-08-24, 03:23:04,VALID,1009.219,VALID,0.0,VALID,104.0,VALID,0.0,VALID,21.3,VALID,26.0,VALID,0.0,
2011-08-24, 03:24:04,VALID,1009.228,VALID,0.0,VALID,104.0,VALID,0.0,VALID,21.3,VALID,26.0,VALID,0.0,
2011-08-24, 03:25:04,VALID,1009.234,VALID,0.0,VALID,104.0,VALID,0.0,VALID,21.3,VALID,26.0,VALID,0.0,
2011-08-24, 03:26:04,VALID,1009.25,VALID,0.0,VALID,104.0,VALID,0.0,VALID,21.319,VALID,26.0,VALID,0.0,
2011-08-24, 03:27:04,VALID,1009.246,VALID,0.0,VALID,104.0,VALID,0.0,VALID,21.319,VALID,26.0,VALID,0.005,
2011-08-24, 03:28:04,VALID,1009.263,VALID,0.0,VALID,104.0,VALID,0.0,VALID,21.3,VALID,26.0,VALID,0.105,
2011-08-24, 03:29:04,VALID,1009.269,VALID,0.0,VALID,104.0,VALID,0.0,VALID,21.301,VALID,26.0,VALID,0.22,
2011-08-24, 03:30:04,VALID,1009.245,VALID,0.0,VALID,104.0,VALID,0.0,VALID,21.241,VALID,26.0,VALID,0.145,
2011-08-24, 03:31:04,VALID,1009.234,VALID,0.0,VALID,104.0,VALID,0.0,VALID,21.241,VALID,26.0,VALID,0.0,
2011-08-24, 03:32:04,VALID,1009.262,VALID,0.0,VALID,104.0,VALID,0.0,VALID,21.241,VALID,26.0,VALID,0.0,
2011-08-24, 03:33:04,VALID,1009.222,VALID,0.0,VALID,104.0,VALID,0.0,VALID,21.222,VALID,26.0,VALID,0.121,
2011-08-24, 03:34:04,VALID,1009.223,VALID,0.0,VALID,104.0,VALID,0.0,VALID,21.201,VALID,26.0,VALID,0.21,
2011-08-24, 03:35:04,VALID,1009.232,VALID,0.0,VALID,104.0,VALID,0.106,VALID,21.201,VALID,26.0,VALID,0.198,
2011-08-24, 03:36:04,VALID,1009.212,VALID,0.0,VALID,104.0,VALID,0.0,VALID,21.22,VALID,26.0,VALID,0.093,
2011-08-24, 03:37:04,VALID,1009.223,VALID,0.0,VALID,104.0,VALID,0.0,VALID,21.22,VALID,26.0,VALID,0.002,
2011-08-24, 03:38:04,VALID,1009.187,VALID,0.0,VALID,104.0,VALID,0.0,VALID,21.24,VALID,26.0,VALID,0.0,
2011-08-24, 03:39:04,VALID,1009.19,VALID,0.0,VALID,104.0,VALID,0.0,VALID,21.241,VALID,26.0,VALID,0.0,
2011-08-24, 03:40:04,VALID,1009.17,VALID,0.0,VALID,104.0,VALID,0.0,VALID,21.24,VALID,26.0,VALID,0.0,
2011-08-24, 03:41:04,VALID,1009.178,VALID,0.0,VALID,104.0,VALID,0.0,VALID,21.259,VALID,26.0,VALID,0.0,
2011-08-24, 03:42:04,VALID,1009.17,VALID,0.0,VALID,104.0,VALID,0.106,VALID,21.259,VALID,26.0,VALID,0.126,
2011-08-24, 03:43:04,VALID,1009.183,VALID,0.0,VALID,104.0,VALID,0.106,VALID,21.279,VALID,26.0,VALID,0.071,